sat.trackr.live / text

‹ back to catalog

STARLINK-36440

NORAD 67447 · 2026-008C

PAYLOAD ACTIVE UNKNOWN

§ Identity

Operator
Country
US
Launch date
2026-01-14
Launch site
AFETR
Launch vehicle
Mass (kg)
RCS (m²)

Purposes: comms

External: N2YO · Heavens-Above · Gunter

§ Orbital elements

Epoch: 2026-05-24T23:28:52.698144Z

Period
94.27 min
Inclination
43.0005°
Eccentricity
0.0002324
Mean motion
15.27591929 rev/d
Perigee alt
481.4 km
Apogee alt
484.6 km
Semi-major
6,861.2 km
B*
5.0733e-4
RAAN
134.0269°
Arg perigee
282.4754°
Mean anomaly
77.5837°
Rev number
2,124

§ Raw data

STARLINK-364401 67447U 26008C   26144.97838771  .00013730  00000+0  50733-3 0  99952 67447  43.0005 134.0269 0002324 282.4754  77.5837 15.27591929 21246

JSON: /api/v1/satellites/67447 · /tle

For live sub-satellite position, see the globe view (requires WebGL).

§ Visibility from observer

Set your observer location to see the next 7 days of passes ≥ 10°. The values pass through the URL so the page stays shareable.

No JS? Fill the form by hand. The geolocation button needs JavaScript.